DECAYED
Showing default

FLOCK 4Y 30, 55025 (Decayed)

Orbit data source: Space-Track

FLOCK 4Y 30, 55025 was a payload satellite owned by Planet (US) in LEO that was launched on Tue, 03 Jan 2023 UTC via an FALCON 9 launch vehicle from the Air Force Eastern Test Range (AFETR). Payload-class satellites include a variety of spacecraft equipped with specific instruments for various scientific and technological missions. These include communications satellites like Starlink; space stations such as the ISS; scientific satellites like the Hubble; Earth observation satellites from companies like Planet Labs, Umbra, and HawkEye 360; GPS; miniature CubeSats for education and research; and military/defense satellites.

Not visible in the next 10 days
Identifier
55025, 2023-001S
Orbit
Decayed
Country
Flag of USUS
Related business
Manufacturer
Planet
Mission
Decayed Commercial Imaging
Bus & Motor
CUBESAT 3U, Unknown motor
Mass
5.7 kg wet, 5.7 kg dry
Launch date (UTC)
2023-01-03 (3 years ago)
Launch vehicle
FALCON 9
Launch site
Air Force Eastern Test Range (AFETR)
Object type
Payload
Rocket body
Debris
Shape & HBR
Box + 2 Pan, 1.0 m
Radar Cross Section
0.108 m², Medium (>0.1 m² and < 1m²)

Expand to show TLE details & history
Last TLE update: 3 months ago

TLE from 3 months ago
0 FLOCK 4Y 30
1 55025U 23001S   25207.15919554  .09241429  24979-5  10928-2 0  9997
2 55025  97.3522 285.1762 0015233 259.4850 100.4731 16.36260014143301
Epoch: 2025-07-26T03:49Z
TLE epoch observation values (Epoch: 2025-07-26T03:49:14.494Z)
Latitude
-0.00008°
Longitude
-76.23402°
Altitude
180.848 km
Speed
7.797 km/s
True Right ascension
19h 00m 42s
True Declination
0° 00' 00"
Sunlit
Object was in full shadow at epoch
Visualization orbit readout
Latitude
Unknown
Longitude
Unknown
Altitude
Unknown
Speed
Unknown
Apparent Right ascension
Unknown
Apparent Declination
Unknown
Sunlit
N/A
Visualization observer readout
Local Sidereal Time
10:15:56
Azimuth
Unknown
Elevation
Unknown
Doppler factor
Unknown
Orbital elements
Apogee altitude
182.559 km
Perigee altitude
162.602 km
Semi-major axis
6,550.718 km
Eccentricity
0.00152
Inclination
97.3522°
RAAN
285.1762°
Arg. of periapsis
259.485°
True anomaly
100.64469°
Mean anomaly
100.4731°
Eccentric anomaly
100.5589°
Mean motion
4.09364 °/min
Orbital period
87.94 mins
BSTAR
0.0010928
Loading maneuver chart data...
Computing Atmospheric mass density...
Loading historical data...
Loading historical data...
Loading historical data...
Loading historical data...
Loading historical data...
Loading historical data...
Loading historical data...

Documentation

Showing up to 5 results
|